Flag for Tunisia

Past Weather in Gafsa, Tunisia — Yesterday and Last 2 Weeks

Now
82 °F

Passing clouds.


Feels Like: 81 °F
Forecast: 82 / 67 °F
Wind: 5 mph from Northeast

Location: Gafsa Airport
Current Time: Sep 25, 2020 at 2:42:04 am
Latest Report: Sep 25, 2020 at 1:00 am
Visibility: N/A
Pressure29.98 "Hg
Humidity: 32%
Dew Point: 50 °F
Location of GafsaLocation

Past Weather in Gafsa — Graph

°F

Gafsa Temperature Yesterday

Maximum temperature yesterday: 102 °F (at 4:00 pm)
Minimum temperature yesterday: 73 °F (at 7:00 am)
Average temperature yesterday: 88 °F

High & Low Weather Summary for the Past Weeks

 TemperatureHumidityPressure
High102 °F (Sep 24, 4:00 pm)94% (Sep 10, 5:00 am)30.15 "Hg (Sep 10, 5:00 am)
Low68 °F (Sep 15, 2:00 am)17% (Sep 24, 4:00 pm)29.83 "Hg (Sep 11, 6:00 pm)
Average82 °F50%30.03 "Hg
* Reported Sep 10 1:00 am — Sep 25 1:00 am, Gafsa. Weather by CustomWeather, © 2020

Note: Actual official high and low records may vary slightly from our data, if they occured in-between our weather recording intervals... More about our weather records

Gafsa Weather History for the Previous 24 Hours

Scroll right to see more
 ConditionsComfort  
Time TempWeatherWind HumidityBarometerVisibility
1:00 am
Fri, Sep 25
82 °FPassing clouds.5 mph32%29.98 "HgN/A
12:00 am81 °FClear.No wind51%29.98 "Hg10 mi
11:00 pm
Thu, Sep 24
84 °FPassing clouds.No wind43%29.98 "Hg5 mi
10:00 pm88 °FClear.6 mph31%30.01 "Hg5 mi
9:00 pm88 °FPassing clouds.No wind25%30.01 "HgN/A
8:00 pm91 °FPassing clouds.5 mph24%29.98 "HgN/A
7:00 pm95 °FPassing clouds.6 mph22%29.98 "Hg5 mi
6:00 pm97 °FScattered clouds.6 mph20%29.98 "Hg5 mi
5:00 pm100 °FScattered clouds.7 mph18%29.98 "Hg5 mi
4:00 pm102 °FPassing clouds.7 mph17%29.98 "Hg5 mi
3:00 pm100 °FClear.8 mph22%29.98 "Hg5 mi
2:00 pm99 °FClear.10 mph27%30.01 "Hg5 mi
1:00 pm97 °FClear.9 mph27%30.01 "Hg5 mi
12:00 pm95 °FClear.9 mph26%30.04 "Hg5 mi
11:00 am91 °FClear.3 mph38%30.07 "Hg5 mi
10:00 am88 °FScattered clouds.8 mph49%30.07 "Hg5 mi
9:00 am82 °FScattered clouds.6 mph62%30.07 "Hg5 mi
8:00 am77 °FScattered clouds.8 mph61%30.07 "Hg5 mi
7:00 am73 °FScattered clouds.7 mph78%30.04 "Hg5 mi
6:00 am75 °FPassing clouds.2 mph74%30.04 "Hg5 mi
5:00 am75 °FPassing clouds.5 mph74%30.04 "Hg5 mi
3:00 am79 °FPassing clouds.9 mph70%30.01 "Hg5 mi
2:00 am79 °FPassing clouds.9 mph70%30.01 "Hg5 mi
Weather by CustomWeather, © 2020

See weather overview